Campo, CA

7:07 PM PST on December 13, 2019 (GMT -0800)
Campo

Weather History for KCZZ - August, 2019

Change the Weather History Date:

Wednesday, August 21, 2019

  Actual Average Record
Temperature  
Mean Temperature 75 °F 74 °F  
Max Temperature 100 °F 95 °F 102 °F (1969)
Min Temperature 50 °F 53 °F 40 °F (1954)
Degree Days  
Heating Degree Days 0 0  
Month to date heating degree days 0 0  
Since 1 June heating degree days 42 63  
Since 1 July heating degree days 6 7  
Cooling Degree Days 10 9  
Month to date cooling degree days 203 189  
Year to date cooling degree days 531 561  
Since 1 June cooling degree days 529 531  
Growing Degree Days 26 (Base 50)    
Moisture  
Dew Point 39 °F    
Average Humidity 39    
Maximum Humidity 67    
Minimum Humidity 10    
Precipitation  
Precipitation 0.00 in 0.02 in 0.63 in (1995)
Month to date precipitation 0.00 0.48  
Year to date precipitation 12.82 10.95  
Sea Level Pressure  
Sea Level Pressure 29.78 in    
Wind  
Wind Speed 8 mph (SE)    
Max Wind Speed 18 mph    
Max Gust Speed 24 mph    
T = Trace of Precipitation, MM = Missing Value Source: NWS Daily Summary

Daily Weather History Graph

Daily Weather History Graph

Search for Another Location

Airport or City:

Astronomy

Aug. 21, 2019 Rise Set
Actual Time 6:13 AM PDT 7:24 PM PDT
Civil Twilight 5:47 AM PDT 7:49 PM PDT
Nautical Twilight 5:17 AM PDT 8:20 PM PDT
Astronomical Twilight 4:45 AM PDT 8:51 PM PDT
Moon 11:03 PM PDT (8/21) 11:35 AM PDT (8/21)
Length of Visible Light 14h 01m
Length of Day
13h 10m
Waning Gibbous, 68% of the Moon is Illuminated
Aug 21
Waning Gibbous
Aug 23
Last Quarter
Aug 30
New
Sep 5
First Quarter
Sep 13
Full

Hourly Weather History & Observations

Time (PDT) Temp. Dew Point Humidity Pressure Visibility Wind Dir Wind Speed Gust Speed Precip Events Conditions
12:52 AM 61.0 °F 48.0 °F 62% 29.83 in - ENE 4.6 mph - N/A   Unknown
1:52 AM 57.9 °F 46.0 °F 65% 29.82 in - ENE 8.1 mph - N/A   Unknown
2:52 AM 55.0 °F 42.1 °F 62% 29.82 in - NE 6.9 mph - N/A   Unknown
3:52 AM 54.0 °F 39.0 °F 57% 29.81 in - NE 8.1 mph - N/A   Unknown
4:52 AM 55.0 °F 37.0 °F 51% 29.81 in - NE 5.8 mph - N/A   Unknown
5:52 AM 52.0 °F 35.1 °F 53% 29.81 in - NE 8.1 mph - N/A   Unknown
6:52 AM 55.9 °F 32.0 °F 40% 29.84 in - ENE 6.9 mph - N/A   Unknown
7:52 AM 68.0 °F 34.0 °F 28% 29.83 in - Calm Calm - N/A   Unknown
8:52 AM 82.0 °F 37.0 °F 20% 29.83 in - Calm Calm - N/A   Unknown
9:52 AM 90.0 °F 35.1 °F 14% 29.82 in - SSW 5.8 mph - N/A   Unknown
10:52 AM 93.9 °F 28.9 °F 10% 29.81 in - SW 8.1 mph - N/A   Unknown
11:52 AM 97.0 °F 30.9 °F 10% 29.79 in - SW 17.3 mph - N/A   Unknown
12:52 PM 98.1 °F 32.0 °F 10% 29.78 in - SW 13.8 mph - N/A   Unknown
1:52 PM 99.0 °F 34.0 °F 10% 29.76 in - SW 16.1 mph - N/A   Unknown
2:52 PM 99.0 °F 39.9 °F 13% 29.75 in - SW 13.8 mph - N/A   Unknown
3:52 PM 98.1 °F 42.1 °F 15% 29.73 in - SW 15.0 mph - N/A   Unknown
4:52 PM 97.0 °F 42.1 °F 15% 29.72 in - SW 12.7 mph - N/A   Unknown
5:52 PM 93.0 °F 44.1 °F 18% 29.73 in - SSW 13.8 mph - N/A   Unknown
6:52 PM 86.0 °F 45.0 °F 24% 29.74 in - SW 9.2 mph - N/A   Unknown
7:52 PM 81.0 °F 46.0 °F 29% 29.74 in - WSW 3.5 mph - N/A   Unknown
8:52 PM 71.1 °F 46.0 °F 41% 29.75 in - NNE 4.6 mph - N/A   Unknown
9:52 PM 66.9 °F 44.1 °F 44% 29.75 in - ENE 8.1 mph - N/A   Unknown
10:52 PM 61.0 °F 44.1 °F 54% 29.76 in - ENE 5.8 mph - N/A   Unknown
11:52 PM 62.1 °F 43.0 °F 50% 29.75 in - NE 5.8 mph - N/A   Unknown